Tullahoma, TN

6:56 PM CDT on May 22, 2018 (GMT -0500)
Tullahoma Regional-Northern

Weather History for KTHA - April, 2014

Change the Weather History Date:

Monday, April 7, 2014

  Actual Average Record
Temperature  
Mean Temperature 54 °F -  
Max Temperature 62 °F 68 °F 69 °F (2013)
Min Temperature 44 °F 44 °F 30 °F (2018)
Degree Days  
Heating Degree Days 11    
Growing Degree Days 4 (Base 50)    
Moisture  
Dew Point 50 °F    
Average Humidity 87    
Maximum Humidity 100    
Minimum Humidity 71    
Precipitation  
Precipitation 0.00 in - - ()
Sea Level Pressure  
Sea Level Pressure 29.69 in    
Wind  
Wind Speed 13 mph (SSW)    
Max Wind Speed 24 mph    
Max Gust Speed 33 mph    
Visibility 9 miles    
Events      
Averages and records for this station are not official NWS values.
T = Trace of Precipitation, MM = Missing Value Source: NWS Daily Summary

Daily Weather History Graph

Daily Weather History Graph

Search for Another Location

Airport or City:

Astronomy

Apr. 07, 2014 Rise Set
Actual Time 6:23 AM CDT 7:11 PM CDT
Civil Twilight 5:57 AM CDT 7:37 PM CDT
Nautical Twilight 5:27 AM CDT 8:07 PM CDT
Astronomical Twilight 4:55 AM CDT 8:39 PM CDT
Moon 12:24 PM CDT (4/7) 1:42 AM CDT (4/7)
Length of Visible Light 13h 39m
Length of Day
12h 48m
First Quarter, 53% of the Moon is Illuminated
Apr 7
First Quarter
Apr 15
Full
Apr 22
Last Quarter
Apr 29
New
May 6
First Quarter

Hourly Weather History & Observations

Time (CDT) Temp. Windchill Dew Point Humidity Pressure Visibility Wind Dir Wind Speed Gust Speed Precip Events Conditions
12:15 AM 50.0 °F - 50.0 °F 100% 29.82 in 4.0 mi ESE 11.5 mph - N/A   Overcast
12:35 AM 50.0 °F - 50.0 °F 100% 29.80 in 4.0 mi ESE 12.7 mph - N/A   Mostly Cloudy
12:55 AM 51.8 °F - 50.0 °F 94% 29.80 in 5.0 mi SE 8.1 mph - N/A   Overcast
1:15 AM 51.8 °F - 50.0 °F 94% 29.79 in 5.0 mi SE 8.1 mph - N/A   Overcast
1:35 AM 51.8 °F - 50.0 °F 94% 29.74 in 7.0 mi SE 11.5 mph - N/A   Mostly Cloudy
1:55 AM 51.8 °F - 50.0 °F 94% 29.75 in 10.0 mi SSE 11.5 mph - N/A   Mostly Cloudy
2:15 AM 51.8 °F - 50.0 °F 94% 29.71 in 7.0 mi SE 15.0 mph - N/A   Overcast
2:35 AM 51.8 °F - 48.2 °F 88% 29.71 in 6.0 mi SSE 18.4 mph - N/A   Mostly Cloudy
2:55 AM 51.8 °F - 48.2 °F 88% 29.68 in 6.0 mi SE 17.3 mph 33.4 mph N/A   Mostly Cloudy
3:15 AM 51.8 °F - 48.2 °F 88% 29.69 in 8.0 mi SSE 17.3 mph - N/A   Mostly Cloudy
3:35 AM 51.8 °F - 50.0 °F 94% 29.72 in 10.0 mi SSE 13.8 mph - N/A   Mostly Cloudy
3:55 AM 51.8 °F - 50.0 °F 94% 29.74 in 6.0 mi SSE 16.1 mph - N/A   Overcast
4:15 AM 51.8 °F - 50.0 °F 94% 29.70 in 5.0 mi SSE 15.0 mph - N/A   Mostly Cloudy
4:35 AM 51.8 °F - 50.0 °F 94% 29.71 in 6.0 mi SSE 10.4 mph - N/A   Mostly Cloudy
4:55 AM 51.8 °F - 51.8 °F 100% 29.66 in 8.0 mi SSE 15.0 mph - N/A   Overcast
5:15 AM 51.8 °F - 51.8 °F 100% 29.64 in 10.0 mi SSE 16.1 mph 28.8 mph N/A   Scattered Clouds
5:35 AM 51.8 °F - 51.8 °F 100% 29.65 in 10.0 mi SSE 17.3 mph - N/A   Clear
5:55 AM 53.6 °F - 51.8 °F 94% 29.67 in 10.0 mi SSE 19.6 mph - N/A   Clear
6:15 AM 53.6 °F - 51.8 °F 94% 29.65 in 10.0 mi SSE 15.0 mph - N/A   Mostly Cloudy
6:35 AM 51.8 °F - 51.8 °F 100% 29.67 in 10.0 mi SSE 11.5 mph - N/A   Scattered Clouds
6:55 AM 53.6 °F - 51.8 °F 94% 29.67 in 10.0 mi SSE 10.4 mph - N/A   Mostly Cloudy
7:15 AM 53.6 °F - 51.8 °F 94% 29.65 in 10.0 mi SSE 12.7 mph - N/A   Mostly Cloudy
7:35 AM 53.6 °F - 51.8 °F 94% 29.65 in 10.0 mi SSE 12.7 mph - N/A   Partly Cloudy
7:55 AM 53.6 °F - 51.8 °F 94% 29.64 in 10.0 mi SE 12.7 mph - N/A   Clear
8:15 AM 55.4 °F - 51.8 °F 88% 29.63 in 10.0 mi SSE 13.8 mph - N/A   Clear
8:35 AM 55.4 °F - 51.8 °F 88% 29.62 in 10.0 mi SSE 13.8 mph - N/A   Mostly Cloudy
8:55 AM 55.4 °F - 51.8 °F 88% 29.61 in 10.0 mi SSE 13.8 mph - N/A   Overcast
9:15 AM 57.2 °F - 53.6 °F 88% 29.58 in 10.0 mi SSE 17.3 mph - N/A   Scattered Clouds
9:35 AM 57.2 °F - 53.6 °F 88% 29.57 in 10.0 mi South 13.8 mph - N/A   Partly Cloudy
9:55 AM 59.0 °F - 53.6 °F 82% 29.58 in 10.0 mi SSE 13.8 mph - N/A   Mostly Cloudy
10:15 AM 59.0 °F - 53.6 °F 82% 29.59 in 10.0 mi South 13.8 mph - N/A   Overcast
10:35 AM 60.8 °F - 53.6 °F 77% 29.59 in 10.0 mi South 10.4 mph - N/A   Overcast
10:55 AM 60.8 °F - 55.4 °F 82% 29.59 in 10.0 mi South 13.8 mph - N/A   Overcast
11:15 AM 60.8 °F - 55.4 °F 82% 29.59 in 8.0 mi South 15.0 mph - N/A   Overcast
11:35 AM 60.8 °F - 55.4 °F 82% 29.59 in 10.0 mi South 13.8 mph - N/A   Overcast
11:55 AM 59.0 °F - 55.4 °F 88% 29.59 in 5.0 mi South 11.5 mph - N/A   Overcast
12:15 PM 59.0 °F - 55.4 °F 88% 29.60 in 4.0 mi South 10.4 mph - N/A   Overcast
12:35 PM 59.0 °F - 57.2 °F 94% 29.60 in 8.0 mi South 13.8 mph - N/A   Overcast
12:55 PM 57.2 °F - 57.2 °F 100% 29.60 in 5.0 mi South 12.7 mph - N/A   Overcast
1:15 PM 59.0 °F - 57.2 °F 94% 29.60 in 2.5 mi South 11.5 mph - N/A   Overcast
1:35 PM 59.0 °F - 57.2 °F 94% 29.60 in 4.0 mi South 11.5 mph - N/A   Overcast
1:55 PM 59.0 °F - 57.2 °F 94% 29.60 in 7.0 mi SW 12.7 mph - N/A   Overcast
2:15 PM 60.8 °F - 59.0 °F 94% 29.60 in 10.0 mi SW 13.8 mph - N/A   Overcast
2:35 PM 62.6 °F - 59.0 °F 88% 29.58 in 10.0 mi SW 16.1 mph - N/A   Overcast
3:15 PM 60.8 °F - 55.4 °F 82% 29.59 in 10.0 mi WSW 19.6 mph - N/A   Mostly Cloudy
3:35 PM 59.0 °F - 53.6 °F 82% 29.60 in 10.0 mi WSW 20.7 mph - N/A   Overcast
3:55 PM 57.2 °F - 51.8 °F 82% 29.61 in 10.0 mi SW 21.9 mph - N/A   Overcast
4:15 PM 57.2 °F - 50.0 °F 77% 29.62 in 10.0 mi WSW 24.2 mph - N/A   Overcast
4:35 PM 55.4 °F - 48.2 °F 77% 29.64 in 10.0 mi WSW 15.0 mph - N/A   Overcast
4:55 PM 55.4 °F - 46.4 °F 72% 29.65 in 10.0 mi WSW 16.1 mph - N/A   Overcast
5:15 PM 53.6 °F - 46.4 °F 77% 29.66 in 10.0 mi WSW 16.1 mph - N/A   Overcast
5:35 PM 53.6 °F - 46.4 °F 77% 29.67 in 10.0 mi SW 12.7 mph - N/A   Overcast
5:55 PM 53.6 °F - 46.4 °F 77% 29.68 in 10.0 mi SW 11.5 mph - N/A   Overcast
6:15 PM 53.6 °F - 46.4 °F 77% 29.70 in 10.0 mi WSW 10.4 mph - N/A   Overcast
6:35 PM 53.6 °F - 46.4 °F 77% 29.70 in 10.0 mi WSW 10.4 mph - N/A   Overcast
6:55 PM 53.6 °F - 44.6 °F 72% 29.72 in 10.0 mi West 21.9 mph - N/A   Overcast
7:15 PM 51.8 °F - 42.8 °F 71% 29.74 in 10.0 mi West 16.1 mph - N/A   Overcast
7:35 PM 51.8 °F - 42.8 °F 71% 29.76 in 10.0 mi West 16.1 mph - N/A   Overcast
7:55 PM 50.0 °F - 42.8 °F 76% 29.76 in 10.0 mi West 18.4 mph - N/A   Overcast
8:15 PM 48.2 °F - 42.8 °F 82% 29.78 in 10.0 mi West 15.0 mph - N/A   Overcast
8:35 PM 48.2 °F - 42.8 °F 82% 29.79 in 10.0 mi WNW 16.1 mph - N/A   Overcast
8:55 PM 48.2 °F - 42.8 °F 82% 29.80 in 10.0 mi West 13.8 mph - N/A   Overcast
9:15 PM 48.2 °F - 42.8 °F 82% 29.82 in 10.0 mi West 10.4 mph - N/A   Overcast
9:35 PM 48.2 °F - 42.8 °F 82% 29.83 in 10.0 mi West 15.0 mph - N/A   Overcast
9:55 PM 46.4 °F 41.5 °F 41.0 °F 81% 29.83 in 10.0 mi West 10.4 mph - N/A   Overcast
10:15 PM 46.4 °F 41.9 °F 41.0 °F 81% 29.83 in 10.0 mi West 9.2 mph - N/A   Overcast
10:35 PM 46.4 °F 42.4 °F 41.0 °F 81% 29.83 in 10.0 mi West 8.1 mph - N/A   Overcast
10:55 PM 46.4 °F 40.7 °F 41.0 °F 81% 29.84 in 10.0 mi West 12.7 mph - N/A   Overcast
11:15 PM 46.4 °F 41.9 °F 41.0 °F 81% 29.84 in 10.0 mi WNW 9.2 mph - N/A   Overcast
11:35 PM 46.4 °F 42.9 °F 41.0 °F 81% 29.84 in 10.0 mi West 6.9 mph - N/A   Overcast
11:55 PM 44.6 °F 39.2 °F 42.8 °F 93% 29.84 in 4.0 mi WNW 10.4 mph - N/A   Overcast